Location: Wawayanda State Park
(41.1833°N, 74.4333°W)
Time: 22:27:50
(UTC-04:00)

RESURS DK-1 - Visible Passes

Search period start: 30 April 2017 00:00
Search period end: 10 May 2017 00:00
Orbit: 558 x 562 km, 69.9° (Epoch: 29 April)

Date Brightness Start Highest point End Pass type
(mag) Time Alt. Az. Time Alt. Az. Time Alt. Az.
30 Apr 5.0 01:44:22 16° NE 01:44:22 16° NE 01:45:22 10° NE visible
30 Apr 4.2 03:20:16 21° NW 03:20:16 21° NW 03:22:57 10° N visible
01 May 4.9 01:42:55 18° NE 01:42:55 18° NE 01:44:09 10° NE visible
01 May 4.5 03:18:49 16° NW 03:18:49 16° NW 03:21:11 10° N visible
02 May 4.8 01:41:26 21° NE 01:41:26 21° NE 01:42:52 10° NNE visible
02 May 4.8 03:17:20 13° NW 03:17:20 13° NW 03:19:12 10° NNW visible
03 May 4.7 01:39:55 23° NNE 01:39:55 23° NNE 01:41:31 10° NNE visible
04 May 4.6 01:38:22 24° NNE 01:38:22 24° NNE 01:40:07 10° NNE visible
05 May 4.6 01:36:47 24° N 01:36:47 24° N 01:38:39 10° NNE visible
06 May 4.6 01:35:09 23° NNW 01:35:09 23° NNW 01:37:08 10° N visible
07 May 4.6 01:33:29 21° NNW 01:33:29 21° NNW 01:35:32 10° N visible
07 May 5.0 23:55:54 13° NE 23:55:54 13° NE 23:56:24 10° NE visible
08 May 4.8 01:31:47 18° NNW 01:31:47 18° NNW 01:33:52 10° N visible
08 May 4.8 23:54:08 17° NE 23:54:08 17° NE 23:55:10 10° NE visible
09 May 4.9 01:30:01 15° NW 01:30:01 15° NW 01:32:04 10° NNW visible
09 May 4.5 23:52:19 22° NNE 23:52:19 22° NNE 23:53:52 10° NNE visible
